Overview Statistics Trail Chart Weather Telemetry Raw packets
 

This is the latest recevied weather packets stored in our database for station/object EA4URC-10. If no packets are shown the sender has not sent any weather packets the latest 10 day(s).

<< 1 2 3 4 5 6 7 >>
Time Temp. Humidity Pressure Rain* Wind** Luminosity Snow
1788484203 23.89° C 17% 1041.3 hPa - - - -
1788482402 23.89° C 19% 1041.4 hPa - - - -
1788480601 23.89° C 18% 1041.6 hPa - - - -
1788478801 25° C 18% 1041.5 hPa - - - -
1788477000 25° C 19% 1041.5 hPa - - - -
1788475200 25° C 19% 1041.4 hPa - - - -
1788473425 25.56° C 19% 1041.3 hPa - - - -
1788471599 25.56° C 18% 1041.2 hPa - - - -
1788469798 25.56° C 17% 1041.3 hPa - - - -
1788468003 25.56° C 17% 1041.4 hPa - - - -
1788466202 25.56° C 16% 1041.2 hPa - - - -
1788464402 26.11° C 16% 1041.1 hPa - - - -
1788462602 26.11° C 17% 1040.8 hPa - - - -
1788460801 26.67° C 17% 1040.7 hPa - - - -
1788459001 28.89° C 16% 1040.9 hPa - - - -
1788457200 32.22° C 14% 1040.7 hPa - - - -
1788455399 32.78° C 14% 1040.7 hPa - - - -
1788453599 31.11° C 14% 1040.7 hPa - - - -
1788451803 32.22° C 12% 1040.6 hPa - - - -
1788449998 33.33° C 13% 1040.7 hPa - - - -
1788448197 35° C 13% 1041 hPa - - - -
1788446405 35.56° C 14% 1040.9 hPa - - - -
1788444604 36.67° C 13% 1041 hPa - - - -
1788442804 37.22° C 13% 1041.3 hPa - - - -
1788441116 35.56° C 15% 1041.5 hPa - - - -

* Rain since midnight (hover to see other rain measurements)
** Current wind speed in m/s (hover to see current wind gust speed)